Content
SEND FEEDBACK

Daily
Averages
Monthly
Summary
Canada

QUEBEC CITY, QUEBEC


Home > North America > Canada > Quebec
Elevation: 72 meters     Latitude: 46 48N     Longitude: 071 23W

WEATHER
 
SELECT A DAY
Number of Records: 192,085;   Date Range: 6/30/96 - 7/28/14
 
SHARE

PRINT THIS DATA

[ ← Previous Day ]
WEATHER ALMANAC - 3 FEBRUARY, 2013
[ Next Day → ]
[ °F ]   °C
Weather ElementAverageHighLow
Temperature-13.3 °C-8 °C (3:00 pm)-20 °C (6:00 am)
Dewpoint-17.5 °C-12.2 °C (7:00 pm)-25 °C (1:00 am)
Humidity67.8 %79 % (7:00 pm)60 % (1:00 am)
Barometer870.6 hPa1019.6 hPa (1:00 am) (7:00 pm)
Wind Speed11.4 km/h24.1 km/h (10:00 am)
Wind Gust27.8 km/h (11:00 am)
Weather ElementAverage
Visibility35.9 km
Wind DirectionENE (62 °)

Weather ElementTotal
Precipitation---
Heating Degree Days32.3 (Base 18.3)
Averaged from 35 records on 3 February, 2013
WEATHER CONDITIONS BREAKOUT
WIND DIRECTION BREAKOUT
WEATHER BY HOUR - 3 FEBRUARY, 2013
[ °F ]   °C
Local TimeTemperatureDewpointHumidityBarometerVisibilityWind DirectionWind SpeedGust SpeedPrecipitationEventsConditions
1:00 AM-19.4 °C-22.2 °C67 %1019.3 hPaNorth3.7 km/h
1:00 AM-19 °C-25 °C60 %1019.6 hPa24.1 kmNorth (10°)9.3 km/hScattered Clouds
2:00 AM-18 °C-24 °C60 %1019.6 hPa24.1 kmNNE (20°)7.4 km/hSnowLight Snow Showers
2:42 AM-19 °C-17.8 °C24.1 kmNNE (20°)9.3 km/hScattered Clouds
3:00 AM-19 °C-24 °C66 %1019.3 hPa24.1 kmNNE (20°)9.3 km/hPartly Cloudy
4:00 AM-19.4 °C-22.2 °C67 %1019.3 hPaNorth3.7 km/h
4:00 AM-19 °C-25 °C60 %1019.3 hPa24.1 kmNorth (10°)11.1 km/hPartly Cloudy
5:00 AM-19 °C-25 °C60 %1019.3 hPa24.1 kmNorth (10°)11.1 km/hPartly Cloudy
6:00 AM-20 °C-25 °C65 %1019 hPa24.1 kmNNE (20°)7.4 km/hPartly Cloudy
7:00 AM-19 °C-25 °C60 %1019 hPa48.3 kmNorth (10°)9.3 km/hPartly Cloudy
7:43 AM-19 °C-17.8 °C48.3 kmNorth (360°)7.4 km/hSnowLight Snow
8:00 AM-18 °C-24 °C60 %1019 hPa48.3 kmNorth (10°)5.6 km/hSnowLight Snow
8:34 AM-17 °C-17.8 °C48.3 kmNorth (360°)3.7 km/hPartly Cloudy
9:00 AM-16 °C-21 °C66 %1018.6 hPa48.3 kmNorth (10°)5.6 km/hPartly Cloudy
10:00 AM-11.7 °C-15 °C68 %1017.6 hPaEast (80°)14.8 km/h
10:00 AM-12 °C-16 °C73 %1017.9 hPa48.3 kmENE (70°)24.1 km/hPartly Cloudy
11:00 AM-11 °C-15 °C73 %1017.3 hPa40.2 kmENE (60°)18.5 km/h27.8 km/hSnowLight Snow
12:00 PM-10 °C-14 °C73 %1016.3 hPa48.3 kmNE (50°)20.4 km/hMostly Cloudy
12:08 PM-10 °C-17.8 °C48.3 kmENE (60°)18.5 km/h27.8 km/hMostly Cloudy
1:00 PM-9.4 °C-13.3 °C62 %1015.6 hPaEast (80°)13 km/h
1:00 PM-9 °C-14 °C68 %1015.6 hPa48.3 kmEast (80°)14.8 km/hMostly Cloudy
2:00 PM-9 °C-13 °C73 %1014.6 hPa48.3 kmENE (60°)13 km/hMostly Cloudy
3:00 PM-8 °C-13 °C68 %1014.2 hPa48.3 kmENE (70°)13 km/hMostly Cloudy
4:00 PM-8.9 °C-12.8 °C64 %1013.2 hPaEast (80°)11.1 km/h
4:00 PM-9 °C-14 °C68 %1013.5 hPa48.3 kmENE (70°)14.8 km/hMostly Cloudy
5:00 PM-9 °C-14 °C68 %1012.9 hPa48.3 kmENE (70°)16.7 km/hMostly Cloudy
6:00 PM-10 °C-14 °C73 %1012.5 hPa24.1 kmENE (60°)18.5 km/hMostly Cloudy
7:00 PM-9.4 °C-12.2 °C73 %1011.9 hPaENE (60°)9.3 km/h
7:00 PM-10 °C-13 °C79 %1011.9 hPa24.1 kmENE (60°)16.7 km/hScattered Clouds
8:00 PM-10 °C-14 °C73 %1011.5 hPa24.1 kmENE (60°)16.7 km/hPartly Cloudy
9:00 PM-10 °C-14 °C73 %1011.2 hPa24.1 kmNE (50°)11.1 km/hMostly Cloudy
9:34 PM-10 °C-17.8 °C24.1 kmENE (60°)11.1 km/hSnowLight Snow
10:00 PM-9.4 °C-12.8 °C67 %1010.8 hPaNE (50°)3.7 km/h
10:00 PM-10 °C-14 °C73 %1010.8 hPa24.1 kmNE (40°)5.6 km/hScattered Clouds
11:00 PM-10 °C-14 °C73 %1010.2 hPa24.1 kmNE (40°)7.4 km/hScattered Clouds
Hourly data recorded from CYQB, located 0 kilometers away from Quebec City, Quebec







STORIES FROM OUR PARTNERS